Weather History for Ruidoso, NM

Change the Weather History Date:

Thursday, October 25, 2012

  Actual Average Record
Temperature  
Mean Temperature 50 °F -  
Max Temperature 62 °F 59 °F 73 °F (2007)
Min Temperature 37 °F 39 °F 28 °F (1997)
Degree Days  
Heating Degree Days 16    
Moisture  
Dew Point 20 °F    
Average Humidity 31    
Maximum Humidity 65    
Minimum Humidity 16    
Precipitation  
Precipitation 0.00 in - - ()
Sea Level Pressure  
Sea Level Pressure 30.13 in    
Wind  
Wind Speed 15 mph (ESE)    
Max Wind Speed 25 mph    
Max Gust Speed 38 mph    
Visibility 10 miles    
Events Rain    
Averages and records for this station are not official NWS values.
T = Trace of Precipitation, MM = Missing Value Source: NWS Daily Summary

Daily Weather History Graph

Daily Weather History Graph

Search for Another Location

Airport:

Trip Planner

Search our weather history database for the weather conditions in past years. The results will help you decide how hot, cold, wet, or windy it might be!

Date:

Astronomy

Oct. 25, 2012 Rise Set
Actual Time 7:15 AM MDT 6:16 PM MDT
Civil Twilight 6:49 AM MDT 6:41 PM MDT
Nautical Twilight 6:20 AM MDT 7:10 PM MDT
Astronomical Twilight 5:51 AM MDT 7:39 PM MDT
Moon 3:55 PM MDT (10/25) 3:25 AM MDT (10/25)
Length of Visible Light 11h 51m
Length of Day
11h 01m
Waxing Gibbous, 85% of the Moon is Illuminated
Oct 25
Waxing Gibbous
Oct 29
Full
Nov 6
Last Quarter
Nov 13
New
Nov 20
First Quarter

Hourly Weather History & Observations

Time (MDT) Temp. Windchill Dew Point Humidity Pressure Visibility Wind Dir Wind Speed Gust Speed Precip Events Conditions
12:15 AM 59.0 °F - 19.4 °F 22% 30.00 in 10.0 mi SW 20.7 mph 24.2 mph N/A Rain Rain
12:35 AM 59.0 °F - 19.4 °F 22% 30.00 in 10.0 mi SW 17.3 mph 25.3 mph N/A Rain Rain
12:55 AM 55.4 °F - 19.4 °F 25% 30.00 in 10.0 mi WSW 10.4 mph - N/A Rain Rain
1:35 AM 57.2 °F - 21.2 °F 25% 29.99 in 10.0 mi West 23.0 mph 27.6 mph N/A Rain Rain
1:55 AM 57.2 °F - 23.0 °F 27% 30.00 in 10.0 mi West 19.6 mph 24.2 mph N/A Rain Rain
2:15 AM 57.2 °F - 23.0 °F 27% 29.99 in 10.0 mi West 19.6 mph 25.3 mph N/A Rain Rain
2:35 AM 57.2 °F - 23.0 °F 27% 29.99 in 10.0 mi West 20.7 mph 26.5 mph N/A Rain Rain
2:55 AM 57.2 °F - 23.0 °F 27% 29.98 in 10.0 mi West 25.3 mph 29.9 mph N/A Rain Rain
3:15 AM 57.2 °F - 23.0 °F 27% 29.99 in 10.0 mi West 21.9 mph 26.5 mph N/A Rain Rain
3:35 AM 57.2 °F - 23.0 °F 27% 29.98 in 10.0 mi West 23.0 mph 27.6 mph N/A Rain Rain
3:55 AM 57.2 °F - 19.4 °F 23% 29.98 in 10.0 mi West 20.7 mph 28.8 mph N/A Rain Rain
4:15 AM 53.6 °F - 19.4 °F 26% 30.00 in 10.0 mi WNW 16.1 mph 29.9 mph N/A Rain Rain
4:35 AM 50.0 °F - 15.8 °F 26% 30.00 in 10.0 mi WNW 21.9 mph 31.1 mph N/A Rain Rain
4:55 AM 50.0 °F - 14.0 °F 24% 30.01 in 10.0 mi NW 20.7 mph 38.0 mph N/A Rain Rain
5:15 AM 48.2 °F - 14.0 °F 25% 30.02 in 10.0 mi NW 18.4 mph 26.5 mph N/A Rain Rain
5:35 AM 48.2 °F - 14.0 °F 25% 30.03 in 10.0 mi NW 20.7 mph 26.5 mph N/A Rain Rain
5:55 AM 48.2 °F - 14.0 °F 25% 30.03 in 10.0 mi NW 18.4 mph 27.6 mph N/A Rain Light Rain
6:15 AM 46.4 °F 40.7 °F 14.0 °F 27% 30.06 in 10.0 mi North 12.7 mph 20.7 mph N/A Rain Rain
6:35 AM 46.4 °F 39.8 °F 14.0 °F 27% 30.07 in 10.0 mi North 16.1 mph 25.3 mph N/A Rain Rain
6:55 AM 46.4 °F 40.7 °F 14.0 °F 27% 30.08 in 10.0 mi NNW 12.7 mph 24.2 mph N/A Rain Rain
7:35 AM 44.6 °F 38.8 °F 14.0 °F 29% 30.11 in 10.0 mi NW 11.5 mph 25.3 mph N/A Rain Rain
8:15 AM 46.4 °F 42.4 °F 15.8 °F 29% 30.15 in 10.0 mi NNE 8.1 mph - N/A Rain Light Rain
8:35 AM 46.4 °F 44.3 °F 15.8 °F 29% 30.16 in 10.0 mi NNW 4.6 mph - N/A Rain Light Rain
8:55 AM 46.4 °F 42.4 °F 15.8 °F 29% 30.17 in 10.0 mi North 8.1 mph 16.1 mph N/A Rain Light Rain
9:15 AM 48.2 °F - 14.0 °F 25% 30.17 in 10.0 mi NW 12.7 mph 24.2 mph N/A Rain Light Rain
9:35 AM 50.0 °F - 14.0 °F 24% 30.18 in 10.0 mi NW 13.8 mph 20.7 mph N/A Rain Light Rain
9:55 AM 50.0 °F - 14.0 °F 24% 30.19 in 10.0 mi NNW 16.1 mph 23.0 mph N/A Rain Light Rain
10:15 AM 51.8 °F - 14.0 °F 22% 30.19 in 10.0 mi NW 16.1 mph 24.2 mph N/A Rain Light Rain
10:35 AM 51.8 °F - 14.0 °F 22% 30.19 in 10.0 mi NW 11.5 mph 21.9 mph N/A Rain Light Rain
10:55 AM 53.6 °F - 14.0 °F 21% 30.19 in 10.0 mi NW 15.0 mph 18.4 mph N/A Rain Light Rain
11:15 AM 53.6 °F - 14.0 °F 21% 30.19 in 10.0 mi NW 10.4 mph - N/A Rain Rain
11:35 AM 55.4 °F - 14.0 °F 20% 30.18 in 10.0 mi North 10.4 mph - N/A Rain Light Rain
11:55 AM 57.2 °F - 14.0 °F 18% 30.18 in 10.0 mi NNW 11.5 mph - N/A Rain Rain
12:15 PM 59.0 °F - 14.0 °F 17% 30.16 in 10.0 mi NW 8.1 mph - N/A Rain Light Rain
12:35 PM 59.0 °F - 14.0 °F 17% 30.15 in 10.0 mi NNE 4.6 mph - N/A Rain Rain
12:55 PM 59.0 °F - 14.0 °F 17% 30.15 in 10.0 mi ESE 4.6 mph - N/A Rain Rain
1:15 PM 62.6 °F - 15.8 °F 16% 30.14 in 10.0 mi SE 12.7 mph 17.3 mph N/A Rain Rain
1:35 PM 62.6 °F - 19.4 °F 19% 30.14 in 10.0 mi SE 12.7 mph 19.6 mph N/A Rain Light Rain
1:55 PM 62.6 °F - 21.2 °F 20% 30.13 in 10.0 mi SE 17.3 mph 23.0 mph N/A Rain Rain
2:15 PM 62.6 °F - 19.4 °F 19% 30.13 in 10.0 mi SE 17.3 mph 24.2 mph N/A Rain Rain
2:35 PM 62.6 °F - 19.4 °F 19% 30.13 in 10.0 mi ESE 12.7 mph 20.7 mph N/A Rain Rain
2:55 PM 62.6 °F - 17.6 °F 18% 30.13 in 10.0 mi SE 17.3 mph 21.9 mph N/A Rain Rain
3:15 PM 59.0 °F - 19.4 °F 22% 30.13 in 0.5 mi ESE 13.8 mph - N/A Rain Rain
3:35 PM 59.0 °F - 19.4 °F 22% 30.14 in 10.0 mi ESE 11.5 mph 18.4 mph N/A Rain Rain
3:55 PM 59.0 °F - 21.2 °F 23% 30.14 in 10.0 mi SE 10.4 mph - N/A Rain Rain
4:15 PM 57.2 °F - 23.0 °F 27% 30.14 in 10.0 mi SE 13.8 mph - N/A Rain Rain
4:35 PM 57.2 °F - 23.0 °F 27% 30.15 in 10.0 mi SSE 13.8 mph - N/A Rain Rain
5:15 PM 55.4 °F - 24.8 °F 31% 30.16 in 10.0 mi SE 11.5 mph - N/A Rain Rain
5:35 PM 53.6 °F - 24.8 °F 33% 30.16 in 10.0 mi SE 10.4 mph - N/A Rain Rain
5:55 PM 53.6 °F - 24.8 °F 33% 30.16 in 10.0 mi ESE 8.1 mph - N/A Rain Rain
6:15 PM 50.0 °F - 24.8 °F 37% 30.17 in 10.0 mi SE 8.1 mph - N/A Rain Rain
6:35 PM 50.0 °F - 24.8 °F 37% 30.17 in 10.0 mi SE 8.1 mph - N/A Rain Rain
6:55 PM 48.2 °F - 23.0 °F 37% 30.18 in 10.0 mi SE 10.4 mph - N/A Rain Rain
7:15 PM 48.2 °F - 24.8 °F 40% 30.18 in 10.0 mi SE 11.5 mph - N/A Rain Light Rain
7:35 PM 46.4 °F 41.5 °F 24.8 °F 43% 30.19 in 10.0 mi SE 10.4 mph - N/A Rain Light Rain
7:55 PM 44.6 °F 39.7 °F 24.8 °F 46% 30.19 in 10.0 mi SE 9.2 mph - N/A Rain Light Rain
8:15 PM 44.6 °F 40.7 °F 24.8 °F 46% 30.19 in 10.0 mi SE 6.9 mph - N/A Rain Light Rain
8:35 PM 44.6 °F 40.7 °F 24.8 °F 46% 30.19 in 10.0 mi SE 6.9 mph - N/A Rain Light Rain
8:55 PM 42.8 °F 38.6 °F 26.6 °F 53% 30.19 in 10.0 mi SE 6.9 mph - N/A Rain Light Rain
9:15 PM 42.8 °F 38.6 °F 26.6 °F 53% 30.20 in 10.0 mi ESE 6.9 mph - N/A Rain Light Rain
9:55 PM 42.8 °F 37.0 °F 28.4 °F 57% 30.21 in 10.0 mi ESE 10.4 mph - N/A Rain Light Rain
10:15 PM 42.8 °F 38.6 °F 28.4 °F 57% 30.22 in 10.0 mi East 6.9 mph - N/A Rain Light Rain
10:35 PM 39.2 °F 34.2 °F 26.6 °F 61% 30.23 in 10.0 mi ENE 6.9 mph - N/A Rain Light Rain
10:55 PM 39.2 °F 33.6 °F 26.6 °F 61% 30.24 in 10.0 mi East 8.1 mph - N/A Rain Light Rain
11:15 PM 39.2 °F 34.2 °F 26.6 °F 61% 30.25 in 10.0 mi ESE 6.9 mph - N/A Rain Light Rain
11:35 PM 37.4 °F 31.4 °F 26.6 °F 65% 30.25 in 10.0 mi SE 8.1 mph - N/A Rain Light Rain
11:55 PM 37.4 °F 33.8 °F 26.6 °F 65% 30.25 in 10.0 mi SSE 4.6 mph - N/A Rain Light Rain